DELTA 1 DEB, 10627

Orbit data source: Space-Track

DELTA 1 DEB, 10627 is space debris in LEO originally from a launch on Thu, 14 Jul 1977 UTC launched from the Air Force Eastern Test Range (AFETR). Debris objects in space refer to the collection of defunct objects orbiting the Earth. Examples of debris include non-operational satellites, rocket bodies, and fragments generated from explosions, collisions, or faulty payload assembly.

Loading next visibility...
Identifier
10627, 1977-065EW
Orbit
LEO
Country
Flag of USUS
Related business
Manufacturer
Unknown
Mission
Spacecraft
Bus & Motor
Unknown
Mass
Unknown
Launch date (UTC)
1977-07-14 (49 years ago)
Launch vehicle
Unknown
Launch site
Air Force Eastern Test Range (AFETR)
Object type
Payload
Rocket body
Debris
Shape & HBR
Unknown shape, 0.2 m
Radar Cross Section
Small (<0.1 m²)

Expand to show TLE details & history
Last TLE update: 14 hours ago

TLE from 14 hours ago
0 DELTA 1 DEB
1 10627U 77065EW  26133.06501503  .00004871  00000-0  29523-2 0  9999
2 10627  28.9709 272.2159 0569167 197.1881 160.8642 13.45642859325521
Epoch: 2026-05-13T01:33Z
TLE epoch observation values (Epoch: 2026-05-13T01:33:37.298Z)
Latitude
0.00002°
Longitude
17.98014°
Altitude
1,490.544 km
Speed
6.926 km/s
True Right ascension
18h 08m 51s
True Declination
0° 00' 00"
Sunlit
Object was in full shadow at epoch
Visualization orbit readout
Latitude
Unknown
Longitude
Unknown
Altitude
Unknown
Speed
Unknown
Apparent Right ascension
Unknown
Apparent Declination
Unknown
Sunlit
N/A
Visualization observer readout
Local Sidereal Time
23:30:09
Azimuth
Unknown
Elevation
Unknown
Doppler factor
Unknown
Orbital elements
Apogee altitude
1,517.366 km
Perigee altitude
666.994 km
Semi-major axis
7,470.317 km
Eccentricity
0.05692
Inclination
28.9709°
RAAN
272.2159°
Arg. of periapsis
197.1881°
True anomaly
162.86686°
Mean anomaly
160.8642°
Eccentric anomaly
161.87851°
Mean motion
3.36151 °/min
Orbital period
107.09 mins
BSTAR
0.0029523
Loading maneuver chart data...
Computing Atmospheric mass density...
Loading historical data...
Loading historical data...
Loading historical data...
Loading historical data...
Loading historical data...
Loading historical data...
Loading historical data...

Documentation

Showing up to 5 results
|